Location: Davayat
(45.9471°N, 3.1105°E)
Time: 17:54:48
(UTC+00:00)

YAOGAN 6 - Pass Details

Date: 01 December 2020
Orbit: 466 x 502 km, 97.0° (Epoch: 23 January)

Event Time Altitude Azimuth Distance (km) Brightness Sun altitude
Rises 16:45:51 0° 163° (SSE) 2,565 6.3 -7.3°
Reaches altitude 10° 16:47:56 10° 162° (SSE) 1,682 5.4 -7.6°
Maximum altitude 16:51:32 78° 77° (ENE) 506 2.5 -8.2°
Drops below altitude 10° 16:55:09 10° 351° (N) 1,676 5.2 -8.7°
Sets 16:57:13 0° 350° (N) 2,555 6.1 -9.1°
